FENGYUN 3D

Last updated on Thu Nov 21 2024 00:02:20 GMT+0000 (Coordinated Universal Time)

1 43010U 17072A 24325.58446486 .00000258 00000+0 14413-3 0 9996 2 43010 98.9337 281.3199 0000525 226.0548 134.0584 14.19500672363609
UTC large
Height (km)
Speed (km/s)
/
Latitude / Longitude
Inclination (degrees)
Orbital Period (minutes)
Azimuth
Elevation
Range (km)
Doppler Factor

Next 0 passes for location: London (51.5072 / 0.1276)

Sorry there are no passes over London.